EW9826 Weather Reports


Display with metric or nautical units.
time (UTC)temp
F
wind
direction
speed
MPH
gust
MPH
rain 1hr
in
rain 24hr
in
rain mn
in
humidity
%
barometer
mb
20260902100054 68 227 6.0 13.0 0.00 0.00 0.00 80 1020.0
20260902095554 69 255 5.0 9.0 0.00 0.00 0.00 80 1019.9
20260902095055 69 259 3.0 7.0 0.00 0.00 0.00 81 1019.9
20260902091055 68 242 7.0 12.0 0.00 0.00 0.00 82 1019.9
20260902084553 67 245 6.0 10.0 0.00 0.00 0.00 84 1019.9
20260902084054 67 262 5.0 9.0 0.00 0.00 0.00 85 1019.9
20260902075054 65 215 3.0 8.0 0.00 0.00 0.00 87 1019.4
20260902074554 65 229 3.0 7.0 0.00 0.00 0.00 88 1019.4
20260902074055 65 242 4.0 7.0 0.00 0.00 0.00 88 1019.4
20260902073555 65 225 5.0 9.0 0.00 0.00 0.00 88 1019.4
20260902073054 64 203 4.0 8.0 0.00 0.00 0.00 88 1019.4
20260902072554 64 233 5.0 9.0 0.00 0.00 0.00 89 1019.3
20260902072054 64 236 5.0 10.0 0.00 0.00 0.00 88 1019.2
20260902071554 64 241 4.0 9.0 0.00 0.00 0.00 88 1019.2
20260902071055 64 235 4.0 10.0 0.00 0.00 0.00 87 1019.1
20260902070054 64 223 3.0 8.0 0.00 0.00 0.00 88 1019.1
20260902065554 64 229 4.0 9.0 0.00 0.00 0.00 88 1019.0
20260902062554 62 209 5.0 9.0 0.00 0.00 0.00 91 1019.0
20260902062054 61 205 4.0 9.0 0.00 0.00 0.00 91 1018.9
20260902061554 61 212 4.0 10.0 0.00 0.00 0.00 91 1018.9
20260902061056 61 210 3.0 7.0 0.00 0.00 0.00 91 1018.9
20260902052054 61 209 3.0 9.0 0.00 0.00 0.00 90 1018.9
20260902050053 61 200 5.0 7.0 0.00 0.00 0.00 90 1018.7
20260902045554 61 201 3.0 7.0 0.00 0.00 0.00 90 1018.7
20260902042054 61 200 3.0 6.0 0.00 0.00 0.00 89 1018.7
20260902041554 61 198 3.0 7.0 0.00 0.00 0.00 89 1018.8
20260902041055 61 193 3.0 9.0 0.00 0.00 0.00 89 1018.7
20260902035054 62 205 2.0 5.0 0.00 0.00 0.00 88 1018.7
20260902034554 62 205 2.0 6.0 0.00 0.00 0.00 88 1018.8
20260902034055 62 205 3.0 7.0 0.00 0.00 0.00 88 1018.9
20260902033053 62 202 3.0 7.0 0.00 0.00 0.00 88 1018.9
20260902032554 62 202 5.0 7.0 0.00 0.00 0.00 88 1018.9
20260902031553 62 201 2.0 7.0 0.00 0.00 0.00 87 1018.9
20260902031054 62 200 3.0 7.0 0.00 0.00 0.00 87 1018.9
20260902024054 62 201 2.0 7.0 0.00 0.00 0.00 86 1019.1
20260902022554 62 218 1.0 3.0 0.00 0.00 0.00 86 1019.2
20260902022054 62 219 3.0 8.0 0.00 0.00 0.00 86 1019.3
20260902013553 62 217 3.0 6.0 0.00 0.00 0.00 85 1019.3
20260902012054 62 219 2.0 6.0 0.00 0.00 0.00 86 1019.4
20260902011553 62 219 3.0 6.0 0.00 0.00 0.00 86 1019.4
20260902004553 61 227 3.0 6.0 0.00 0.00 0.00 85 1019.5
20260902004054 61 229 2.0 5.0 0.00 0.00 0.00 85 1019.4
20260902003554 61 231 3.0 5.0 0.00 0.00 0.00 85 1019.5
20260902003054 61 232 2.0 3.0 0.00 0.00 0.00 85 1019.5
20260902002553 61 232 2.0 5.0 0.00 0.00 0.00 85 1019.5
20260902002054 61 233 3.0 5.0 0.00 0.00 0.00 85 1019.5
20260902001553 61 233 3.0 5.0 0.00 0.00 0.00 85 1019.5
20260902001054 61 234 1.0 5.0 0.00 0.00 0.00 84 1019.5
20260902000054 61 234 1.0 3.0 0.00 0.00 0.00 84 1019.7
20260901235553 61 234 1.0 3.0 0.00 0.00 0.00 84 1019.7
20260901235054 61 234 2.0 6.0 0.00 0.00 0.00 84 1019.7
20260901231553 61 242 1.0 3.0 0.00 0.00 0.00 82 1019.9
20260901231054 61 242 1.0 3.0 0.00 0.00 0.00 82 1019.9
20260901224054 61 248 0.0 3.0 0.00 0.00 0.00 83 1020.1
20260901223553 61 248 2.0 3.0 0.00 0.00 0.00 83 1020.1
20260901223053 61 248 0.0 0.0 0.00 0.00 0.00 82 1020.1
20260901222553 61 248 0.0 0.0 0.00 0.00 0.00 82 1020.1
20260901222054 61 248 0.0 1.0 0.00 0.00 0.00 82 1020.0
20260901221553 61 248 0.0 2.0 0.00 0.00 0.00 83 1019.9
20260901221053 61 248 1.0 3.0 0.00 0.00 0.00 83 1020.0
20260901213055 61 248 0.0 0.0 0.00 0.03 0.00 82 1020.0
20260901212553 62 248 0.0 0.0 0.00 0.06 0.00 81 1020.0
20260901205054 62 248 0.0 0.0 0.00 0.14 0.00 80 1020.5
20260901204553 62 248 0.0 0.0 0.00 0.14 0.00 80 1020.6
20260901204053 62 248 0.0 0.0 0.00 0.14 0.00 80 1020.6
20260901203553 62 248 0.0 0.0 0.00 0.14 0.00 80 1020.7
20260901203053 62 248 0.0 0.0 0.00 0.14 0.00 80 1020.6
20260901202553 62 248 0.0 0.0 0.00 0.14 0.00 80 1020.7
20260901195054 63 248 0.0 0.0 0.00 0.14 0.00 78 1020.5
20260901194553 63 248 0.0 0.0 0.00 0.14 0.00 77 1020.5
20260901193553 63 248 0.0 2.0 0.00 0.14 0.00 77 1020.5
20260901190053 64 248 0.0 0.0 0.00 0.14 0.00 74 1020.0
20260901183553 65 248 0.0 2.0 0.00 0.14 0.00 72 1020.0
20260901183054 65 248 1.0 3.0 0.00 0.14 0.00 72 1020.0
20260901181053 66 300 1.0 5.0 0.00 0.14 0.00 70 1020.0
20260901173553 68 269 4.0 6.0 0.00 0.14 0.00 67 1020.3
20260901173053 68 259 2.0 7.0 0.00 0.14 0.00 67 1020.4
20260901165552 68 302 5.0 7.0 0.00 0.14 0.00 66 1020.5
20260901164552 68 311 5.0 10.0 0.00 0.14 0.00 65 1020.5
20260901164053 69 304 4.0 8.0 0.00 0.14 0.00 65 1020.5
20260901163552 69 304 2.0 8.0 0.00 0.14 0.00 65 1020.5
20260901163054 69 308 5.0 9.0 0.00 0.14 0.00 64 1020.5
20260901162552 69 308 3.0 8.0 0.00 0.14 0.00 65 1020.5
20260901162053 69 303 7.0 12.0 0.00 0.14 0.00 63 1020.5
20260901161053 69 295 7.0 12.0 0.00 0.14 0.00 61 1020.5
20260901160052 69 302 6.0 12.0 0.00 0.14 0.00 61 1020.4
20260901155552 69 300 7.0 12.0 0.00 0.14 0.00 62 1020.4
20260901155053 69 285 5.0 10.0 0.00 0.14 0.00 63 1020.4
20260901152053 69 324 6.0 9.0 0.00 0.14 0.00 62 1020.2
20260901151552 69 267 5.0 8.0 0.00 0.14 0.00 61 1020.2
20260901151053 69 273 4.0 12.0 0.00 0.14 0.00 62 1020.1
20260901145053 69 317 6.0 12.0 0.00 0.14 0.00 61 1020.2
20260901142053 70 283 6.0 10.0 0.00 0.14 0.00 61 1020.3
20260901141553 70 222 3.0 7.0 0.00 0.14 0.00 59 1020.3
20260901141053 70 246 4.0 10.0 0.00 0.14 0.00 60 1020.2
20260901140052 70 302 5.0 9.0 0.00 0.14 0.00 60 1020.3
20260901135552 70 295 4.0 8.0 0.00 0.14 0.00 60 1020.4
20260901133552 69 294 5.0 12.0 0.00 0.14 0.00 61 1020.3
20260901132052 69 312 7.0 12.0 0.00 0.14 0.00 60 1020.4
20260901131552 69 298 9.0 14.0 0.00 0.14 0.00 60 1020.4
20260901124552 69 297 7.0 13.0 0.00 0.14 0.00 59 1020.4
20260901124052 70 297 7.0 14.0 0.00 0.14 0.00 60 1020.4
20260901123552 70 303 7.0 12.0 0.00 0.14 0.00 61 1020.4
20260901122552 69 282 5.0 13.0 0.00 0.14 0.00 63 1020.4
20260901122052 68 289 7.0 12.0 0.00 0.14 0.00 64 1020.4
20260901121552 69 306 9.0 14.0 0.00 0.14 0.00 64 1020.4
20260901121052 68 252 5.0 12.0 0.00 0.14 0.00 66 1020.5
20260901115552 69 314 6.0 16.0 0.00 0.14 0.00 65 1020.4
20260901115053 69 306 6.0 13.0 0.00 0.14 0.00 66 1020.4
20260901114553 69 298 8.0 17.0 0.00 0.14 0.00 65 1020.4
20260901114052 69 275 7.0 16.0 0.00 0.14 0.00 65 1020.4
20260901113552 68 270 5.0 13.0 0.00 0.14 0.00 65 1020.4
20260901113052 68 283 8.0 14.0 0.00 0.14 0.00 62 1020.4
20260901112552 69 281 7.0 14.0 0.00 0.17 0.00 63 1020.4
20260901112053 69 248 6.0 12.0 0.00 0.19 0.00 65 1020.3
20260901111551 68 294 7.0 12.0 0.00 0.20 0.00 64 1020.3
20260901110052 68 301 7.0 13.0 0.00 0.22 0.00 65 1020.4
20260901104552 68 304 6.0 14.0 0.00 0.22 0.00 66 1020.2
20260901104052 68 304 7.0 14.0 0.00 0.23 0.00 67 1020.2
20260901103552 68 300 7.0 13.0 0.00 0.23 0.00 66 1020.1